Flag for U.S.A. Weather past 2 weeks in Las Cruces, New Mexico, U.S.A.

Now
94 °F

Sunny.


Feels Like: 90 °F
Forecast: 63 / 96 °F
Wind: 14 mph from West

Location: Las Cruces International

Current Time: Jun 2, 2015 at 5:59:46 PM

Latest Report: Jun 2, 2015 at 5:15 PM


Visibility: 10 mi

Pressure: 29.97 "Hg

Humidity: 7%

Dew point: 20 °F

Location of Las CrucesLocation

Historic Weather in Las Cruces — Graph

°F

Las Cruces temperature yesterday

Maximum temperature yesterday: 95 °F (at 3:15 PM)
Minimum temperature yesterday: 57 °F (at 5:55 AM)
Average temperature yesterday: 78 °F

Past Weeks' High & Low Weather Summary

 TemperatureHumidityPressure
High95 °F (Jun 1, 3:15 PM)93% (May 22, 6:15 AM)30.23 "Hg (May 22, 6:15 AM)
Low46 °F (May 20, 6:15 AM)5% (May 28, 2:55 PM)29.86 "Hg (May 24, 6:15 PM)
Average71 °F27%30.04 "Hg
* Reported May 18 4:15 PM — Jun 2 4:15 PM, Las Cruces, Weather by CustomWeather, © 2015

Note: Actual official high and low records may vary slightly from our data, if they occured in-between our weather recording intervals... More about our weather records

Advertising

Las Cruces weather history for previous 24 hours

 ConditionsComfort  
Time TempWeatherWind HumidityBarometerVisibility
4:15 PM
Tue, Jun 2
94 °FSunny.14 mph7%29.99 "Hg10 mi
3:15 PM94 °FSunny.20 mph7%30.01 "Hg10 mi
2:55 PM95 °FSunny.13 mph7%30.02 "Hg10 mi
2:35 PM94 °FSunny.12 mph7%30.04 "Hg10 mi
2:15 PM94 °FSunny.13 mph8%30.04 "Hg10 mi
1:55 PM93 °FSunny.8 mph8%30.05 "Hg10 mi
1:35 PM94 °FSunny.12 mph8%30.06 "Hg10 mi
1:15 PM94 °FSunny.20 mph8%30.07 "Hg10 mi
12:55 PM92 °FSunny.13 mph8%30.07 "Hg10 mi
12:35 PM92 °FSunny.14 mph8%30.08 "Hg10 mi
12:15 PM91 °FSunny.16 mph9%30.10 "Hg10 mi
11:55 AM90 °FSunny.10 mph10%30.10 "Hg10 mi
11:35 AM89 °FSunny.No wind12%30.10 "Hg10 mi
11:15 AM88 °FSunny.5 mph13%30.11 "Hg10 mi
10:55 AM86 °FSunny.3 mph20%30.11 "Hg10 mi
10:35 AM85 °FSunny.No wind20%30.11 "Hg10 mi
10:15 AM84 °FSunny.No wind21%30.11 "Hg10 mi
9:15 AM79 °FSunny.No wind24%30.12 "Hg10 mi
8:55 AM77 °FSunny.No wind26%30.12 "Hg10 mi
8:35 AM76 °FSunny.No wind27%30.12 "Hg10 mi
8:15 AM75 °FSunny.3 mph29%30.11 "Hg10 mi
7:55 AM71 °FSunny.No wind35%30.11 "Hg10 mi
7:35 AM66 °FSunny.3 mph42%30.11 "Hg10 mi
7:15 AM64 °FSunny.3 mph44%30.10 "Hg10 mi
6:55 AM62 °FClear.3 mph43%30.10 "Hg10 mi
6:35 AM58 °FClear.3 mph47%30.09 "Hg10 mi
6:15 AM56 °FClear.6 mph49%30.08 "Hg10 mi
5:55 AM58 °FClear.5 mph45%30.08 "Hg10 mi
5:35 AM59 °FClear.5 mph43%30.07 "Hg10 mi
5:15 AM63 °FClear.No wind36%30.07 "Hg10 mi
4:55 AM61 °FClear.3 mph39%30.07 "Hg10 mi
4:35 AM64 °FClear.6 mph36%30.06 "Hg10 mi
4:15 AM64 °FClear.8 mph37%30.06 "Hg10 mi
3:55 AM65 °FClear.8 mph36%30.07 "Hg10 mi
3:35 AM64 °FClear.6 mph39%30.07 "Hg10 mi
3:15 AM64 °FClear.5 mph40%30.07 "Hg10 mi
2:55 AM66 °FClear.5 mph35%30.07 "Hg10 mi
2:15 AM71 °FClear.6 mph32%30.07 "Hg10 mi
1:55 AM68 °FClear.3 mph35%30.08 "Hg10 mi
1:35 AM69 °FClear.No wind33%30.07 "Hg10 mi
1:15 AM73 °FClear.5 mph29%30.08 "Hg10 mi
12:55 AM74 °FClear.6 mph28%30.08 "Hg10 mi
12:35 AM76 °FClear.6 mph26%30.08 "Hg10 mi
12:15 AM69 °FClear.3 mph32%30.08 "Hg10 mi
11:55 PM
Mon, Jun 1
72 °FClear.5 mph29%30.08 "Hg10 mi
11:15 PM75 °FClear.7 mph26%30.08 "Hg10 mi
10:55 PM74 °FClear.No wind27%30.08 "Hg10 mi
10:15 PM73 °FClear.10 mph26%30.08 "Hg10 mi
9:15 PM75 °FClear.No wind23%30.04 "Hg10 mi
8:55 PM80 °FSunny.No wind21%30.04 "Hg10 mi
8:35 PM80 °FSunny.3 mph20%30.03 "Hg10 mi
8:15 PM83 °FSunny.3 mph17%30.04 "Hg10 mi
7:55 PM86 °FSunny.5 mph16%30.04 "Hg10 mi
7:15 PM88 °FSunny.No wind15%30.04 "Hg10 mi
6:55 PM88 °FSunny.No wind15%30.04 "Hg10 mi
6:35 PM89 °FSunny.5 mph15%30.04 "Hg10 mi
6:15 PM87 °FSunny.3 mph16%30.05 "Hg10 mi
5:55 PM90 °FSunny.5 mph15%30.06 "Hg10 mi
5:35 PM89 °FSunny.7 mph16%30.06 "Hg10 mi
5:15 PM92 °FSunny.12 mph14%30.06 "Hg10 mi
Weather by CustomWeather, © 2015

See weather overviewHow to use our weather pages